YM2KV-13 Weather Reports


time (UTC)temp
C
wind
direction
speed
KPH
gust
KPH
rain 1hr
cm
rain 24hr
cm
rain mn
cm
humidity
%
barometer
mb
20260507073951 20 0.0 0.0 0.00 0.00 0.00 52 1029.9
20260507072951 20 0.0 0.0 0.00 0.00 0.00 56 1030.0
20260507071951 18 0.0 0.0 0.00 0.00 0.00 56 1030.0
20260507070951 18 0.0 0.0 0.00 0.00 0.00 58 1030.0
20260507065951 17 0.0 0.0 0.00 0.00 0.00 58 1030.0
20260507064950 16 0.0 0.0 0.00 0.00 0.00 62 1030.0
20260507063951 16 0.0 0.0 0.00 0.00 0.00 67 1030.0
20260507062951 15 0.0 0.0 0.00 0.00 0.00 67 1030.1
20260507061950 15 0.0 0.0 0.00 0.00 0.00 70 1030.1
20260507060950 13 0.0 0.0 0.00 0.00 0.00 70 1030.2
20260507055950 13 0.0 0.0 0.00 0.00 0.00 72 1030.3
20260507054950 12 0.0 0.0 0.00 0.00 0.00 74 1030.4
20260507053950 12 0.0 0.0 0.00 0.00 0.00 79 1030.3
20260507052950 11 0.0 0.0 0.00 0.00 0.00 82 1030.3
20260507051950 11 0.0 0.0 0.00 0.00 0.00 82 1030.3
20260507050951 10 0.0 0.0 0.00 0.00 0.00 84 1030.4
20260507045950 9 0.0 0.0 0.00 0.00 0.00 88 1030.3
20260507044950 8 0.0 0.0 0.00 0.00 0.00 90 1030.3
20260507043951 8 0.0 0.0 0.00 0.00 0.00 90 1030.2
20260507042950 7 0.0 0.0 0.00 0.00 0.00 91 1030.2
20260507041950 7 0.0 0.0 0.00 0.00 0.00 92 1030.2
20260507040950 6 0.0 0.0 0.00 0.00 0.00 91 1030.1
20260507035950 6 0.0 0.0 0.00 0.00 0.00 91 1029.9
20260507034950 6 0.0 0.0 0.00 0.00 0.00 91 1029.9
20260507033950 5 0.0 0.0 0.00 0.00 0.00 91 1029.7
20260507032950 5 0.0 0.0 0.00 0.00 0.00 91 1029.6
20260507031950 5 0.0 0.0 0.00 0.00 0.00 91 1029.5
20260507030950 5 0.0 0.0 0.00 0.00 0.00 91 1029.4
20260507025950 5 0.0 0.0 0.00 0.00 0.00 90 1029.5
20260507024950 6 0.0 0.0 0.00 0.00 0.00 91 1029.4
20260507023950 5 0.0 0.0 0.00 0.00 0.00 91 1029.4
20260507022950 5 0.0 0.0 0.00 0.00 0.00 91 1029.3
20260507021950 5 0.0 0.0 0.00 0.00 0.00 91 1029.2
20260507020950 5 0.0 0.0 0.00 0.00 0.00 90 1029.2
20260507015950 6 0.0 0.0 0.00 0.00 0.00 90 1029.2
20260507014950 6 0.0 0.0 0.00 0.00 0.00 91 1029.1
20260507013950 6 0.0 0.0 0.00 0.00 0.00 90 1029.1
20260507012950 6 0.0 0.0 0.00 0.00 0.00 90 1029.1
20260507011950 6 0.0 0.0 0.00 0.00 0.00 91 1029.1
20260507010950 6 0.0 0.0 0.00 0.00 0.00 91 1029.0
20260507005950 6 0.0 0.0 0.00 0.00 0.00 90 1028.9
20260507004950 6 0.0 0.0 0.00 0.00 0.00 90 1029.0
20260507003950 6 0.0 0.0 0.00 0.00 0.00 90 1029.0
20260507002950 6 0.0 0.0 0.00 0.00 0.00 90 1028.9
20260507001950 6 0.0 0.0 0.00 0.00 0.00 90 1028.8
20260507000950 6 0.0 0.0 0.00 0.00 0.00 90 1028.8
20260506235950 6 0.0 0.0 0.00 0.00 0.00 91 1028.8
20260506234950 6 0.0 0.0 0.00 0.00 0.00 91 1028.8
20260506233950 6 0.0 0.0 0.00 0.00 0.00 91 1028.8
20260506232950 6 0.0 0.0 0.00 0.00 0.00 91 1028.8
20260506231950 6 0.0 0.0 0.00 0.00 0.00 90 1028.7
20260506230950 6 0.0 0.0 0.00 0.00 0.00 90 1028.8
20260506225950 6 0.0 0.0 0.00 0.00 0.00 90 1028.8
20260506224950 7 0.0 0.0 0.00 0.00 0.00 89 1028.8
20260506223950 7 0.0 0.0 0.00 0.00 0.00 89 1028.8
20260506222950 6 0.0 0.0 0.00 0.00 0.00 90 1028.8
20260506221950 7 0.0 0.0 0.00 0.00 0.00 88 1028.8
20260506220950 7 0.0 0.0 0.00 0.00 0.00 88 1028.8
20260506215950 7 0.0 0.0 0.00 0.00 0.00 88 1028.9
20260506214950 7 0.0 0.0 0.00 0.00 0.00 88 1028.8
20260506213950 7 0.0 0.0 0.00 0.00 0.00 89 1028.7
20260506212950 7 0.0 0.0 0.00 0.00 0.00 88 1028.8
20260506211950 7 0.0 0.0 0.00 0.00 0.00 88 1028.7
20260506210950 7 0.0 0.0 0.00 0.00 0.00 88 1028.7
20260506205950 7 0.0 0.0 0.00 0.00 0.00 89 1028.8
20260506204950 8 0.0 0.0 0.00 0.00 0.00 88 1028.7
20260506203950 8 0.0 0.0 0.00 0.00 0.00 88 1028.6
20260506202950 8 0.0 0.0 0.00 0.00 0.00 88 1028.6
20260506201950 8 0.0 0.0 0.00 0.00 0.00 88 1028.6
20260506200950 8 0.0 0.0 0.00 0.00 0.00 88 1028.5
20260506195950 8 0.0 0.0 0.00 0.00 0.00 88 1028.5
20260506194950 8 0.0 0.0 0.00 0.00 0.00 88 1028.5
20260506193950 8 0.0 0.0 0.00 0.00 0.00 88 1028.6
20260506192950 8 0.0 0.0 0.00 0.00 0.00 87 1028.5
20260506191950 8 0.0 0.0 0.00 0.00 0.00 88 1028.5
20260506190950 9 0.0 0.0 0.00 0.00 0.00 86 1028.5
20260506185950 10 0.0 0.0 0.00 0.00 0.00 86 1028.4
20260506184950 10 0.0 0.0 0.00 0.00 0.00 86 1028.4
20260506183950 10 0.0 0.0 0.00 0.00 0.00 85 1028.4
20260506182950 10 0.0 0.0 0.00 0.00 0.00 85 1028.3
20260506181950 10 0.0 0.0 0.00 0.00 0.00 85 1028.4
20260506180950 10 0.0 0.0 0.00 0.00 0.00 83 1028.3
20260506175950 11 0.0 0.0 0.00 0.00 0.00 83 1028.3
20260506174950 11 0.0 0.0 0.00 0.00 0.00 79 1028.2
20260506173949 12 0.0 0.0 0.00 0.00 0.00 78 1028.1
20260506172950 12 0.0 0.0 0.00 0.00 0.00 79 1028.1
20260506171950 12 0.0 0.0 0.00 0.00 0.00 78 1028.0
20260506170950 12 0.0 0.0 0.00 0.00 0.00 77 1028.0
20260506165950 12 0.0 0.0 0.00 0.00 0.00 77 1028.1
20260506164950 13 0.0 0.0 0.00 0.00 0.00 75 1028.1
20260506163949 13 0.0 0.0 0.00 0.00 0.00 73 1028.1
20260506162949 13 0.0 0.0 0.00 0.00 0.00 73 1028.2
20260506161949 15 0.0 0.0 0.00 0.00 0.00 69 1028.2
20260506160949 15 0.0 0.0 0.00 0.00 0.00 69 1028.2
20260506155949 15 0.0 0.0 0.00 0.00 0.00 66 1028.2
20260506154950 16 0.0 0.0 0.00 0.00 0.00 64 1028.2
20260506153949 16 0.0 0.0 0.00 0.00 0.00 62 1028.2
20260506152949 16 0.0 0.0 0.00 0.00 0.00 61 1028.1
20260506151949 17 0.0 0.0 0.00 0.00 0.00 60 1028.1
20260506150949 17 0.0 0.0 0.00 0.00 0.00 59 1028.2
20260506145949 17 0.0 0.0 0.00 0.00 0.00 57 1028.2
20260506144949 18 0.0 0.0 0.00 0.00 0.00 56 1028.3
20260506143950 18 0.0 0.0 0.00 0.00 0.00 55 1028.2
20260506142949 18 0.0 0.0 0.00 0.00 0.00 55 1028.2
20260506141949 18 0.0 0.0 0.00 0.00 0.00 54 1028.2
20260506140949 18 0.0 0.0 0.00 0.00 0.00 53 1028.2
20260506135949 19 0.0 0.0 0.00 0.00 0.00 53 1028.3
20260506134949 19 0.0 0.0 0.00 0.00 0.00 53 1028.3
20260506133949 19 0.0 0.0 0.00 0.00 0.00 54 1028.2
20260506132949 19 0.0 0.0 0.00 0.00 0.00 54 1028.2
20260506131949 19 0.0 0.0 0.00 0.00 0.00 54 1028.3
20260506130949 20 0.0 0.0 0.00 0.00 0.00 53 1028.3
20260506125949 20 0.0 0.0 0.00 0.00 0.00 54 1028.3
20260506124949 20 0.0 0.0 0.00 0.00 0.00 54 1028.3
20260506123949 20 0.0 0.0 0.00 0.00 0.00 53 1028.3
20260506122949 20 0.0 0.0 0.00 0.00 0.00 54 1028.4
20260506121949 20 0.0 0.0 0.00 0.00 0.00 55 1028.5
20260506120949 20 0.0 0.0 0.00 0.00 0.00 55 1028.6
20260506115949 20 0.0 0.0 0.00 0.00 0.00 55 1028.7
20260506114949 19 0.0 0.0 0.00 0.00 0.00 56 1028.7
20260506113949 18 0.0 0.0 0.00 0.00 0.00 56 1028.7
20260506112949 17 0.0 0.0 0.00 0.00 0.00 60 1028.6
20260506111949 18 0.0 0.0 0.00 0.00 0.00 58 1028.6
20260506110949 20 0.0 0.0 0.00 0.00 0.00 58 1028.7
20260506105949 19 0.0 0.0 0.00 0.00 0.00 57 1028.7
20260506104949 18 0.0 0.0 0.00 0.00 0.00 59 1028.8
20260506103949 20 0.0 0.0 0.00 0.00 0.00 57 1028.9
20260506102949 18 0.0 0.0 0.00 0.00 0.00 60 1028.8
20260506101949 18 0.0 0.0 0.00 0.00 0.00 60 1028.8
20260506100949 18 0.0 0.0 0.00 0.00 0.00 61 1028.8
20260506095949 17 0.0 0.0 0.00 0.00 0.00 63 1028.8
20260506094949 17 0.0 0.0 0.00 0.00 0.00 63 1028.8
20260506093949 17 0.0 0.0 0.00 0.00 0.00 63 1028.9
20260506092949 17 0.0 0.0 0.00 0.00 0.00 63 1029.0
20260506091949 17 0.0 0.0 0.00 0.00 0.00 64 1029.0
20260506090949 17 0.0 0.0 0.00 0.00 0.00 64 1029.1
20260506085949 16 0.0 0.0 0.00 0.00 0.00 69 1029.1
20260506084949 16 0.0 0.0 0.00 0.00 0.00 70 1029.1
20260506083949 16 0.0 0.0 0.00 0.00 0.00 69 1029.0
20260506082949 16 0.0 0.0 0.00 0.00 0.00 65 1029.1
20260506081949 16 0.0 0.0 0.00 0.00 0.00 66 1029.0
20260506080949 16 0.0 0.0 0.00 0.00 0.00 69 1029.0